This demonstration page uses our WeatherBlox Daily Observations layout. Learn more.

Left ArrowRight Arrow

38.88101, -77.10428

Hourly Observations for July 29, 2020

Temp ( °F °C ) Dew Point ( °F °C ) Humidity (%) Winds ( mph kmh ) Pressure ( in mb ) Visibility ( mi km ) Precip ( " mm )
12:52 am 00:52 Mostly Cloudy 79 26.1 73 22.8 82 82 WSW 8 13 29.92 1013 10 16.0934 0 0
1:52 am 01:52 Partly Cloudy 77 25 72 22.2 85 85 W 5 7 29.91 1013 10 16.0934 0 0
2:52 am 02:52 Partly Cloudy 76 24.4 72 22.2 88 88 S 6 9 29.92 1013 10 16.0934 0 0
3:52 am 03:52 Partly Cloudy 75 23.9 71 21.7 88 88 SW 5 7 29.93 1014 10 16.0934 0 0
4:52 am 04:52 Partly Cloudy 76 24.4 72 22.2 88 88 Calm 29.94 1014 10 16.0934 0 0
5:52 am 05:52 Partly Cloudy 75 23.9 71 21.7 88 88 SW 5 7 29.95 1014 10 16.0934 0 0
6:52 am 06:52 Mostly Cloudy 77 25 71 21.7 82 82 NNW 6 9 29.96 1014 10 16.0934 0 0
7:52 am 07:52 Mostly Sunny 80 26.7 69 20.6 69 69 N 8 13 29.97 1015 10 16.0934 0 0
8:52 am 08:52 Mostly Sunny 83 28.3 68 20 61 61 VRB 6 9 29.98 1015 10 16.0934 0 0
9:52 am 09:52 Mostly Sunny 86 30 67 19.4 53 53 Calm 29.99 1016 10 16.0934 0 0
10:52 am 10:52 Mostly Sunny 87 30.6 65 18.3 48 48 VRB 3 6 29.98 1015 10 16.0934 0 0
11:52 am 11:52 Mostly Sunny 89 31.7 61 16.1 39 39 VRB 6 9 29.98 1015 10 16.0934 0 0
12:52 pm 12:52 Mostly Sunny 90 32.2 62 16.7 39 39 SE 8 13 29.97 1015 10 16.0934 0 0
1:52 pm 13:52 Mostly Sunny 90 32.2 63 17.2 41 41 VRB 5 7 29.96 1015 10 16.0934 0 0
2:52 pm 14:52 Partly Cloudy 92 33.3 60 15.6 34 34 SW 6 9 29.94 1014 10 16.0934 0 0
3:52 pm 15:52 Partly Cloudy 92 33.3 60 15.6 34 34 W 9 15 29.91 1013 10 16.0934 0 0
4:52 pm 16:52 Partly Cloudy 91 32.8 58 14.4 33 33 VRB 6 9 29.89 1012 10 16.0934 0 0
5:52 pm 17:52 Mostly Sunny 92 33.3 57 13.9 31 31 SW 10 17 29.89 1012 10 16.0934 0 0
6:52 pm 18:52 Mostly Sunny 90 32.2 60 15.6 37 37 WSW 14 22 29.89 1012 10 16.0934 0 0
7:52 pm 19:52 Mostly Sunny 88 31.1 62 16.7 42 42 SSW 8 13 29.9 1013 10 16.0934 0 0
8:52 pm 20:52 Mostly Clear 85 29.4 66 18.9 53 53 S 8 13 29.91 1013 10 16.0934 0 0
9:52 pm 21:52 Mostly Clear 84 28.9 71 21.7 65 65 S 9 15 29.92 1013 10 16.0934 0 0
10:52 pm 22:52 Partly Cloudy 83 28.3 70 21.1 65 65 S 12 19 29.93 1013 10 16.0934 0 0
11:52 pm 23:52 Partly Cloudy 81 27.2 72 22.2 74 74 S 7 11 29.92 1013 10 16.0934 0 0

Powered by AerisWeather